TimeMDT,TemperatureF,Dew PointF,Humidity,Sea Level PressureIn,VisibilityMPH,Wind Direction,Wind SpeedMPH,Gust SpeedMPH,PrecipitationIn,Events,Conditions,WindDirDegrees,DateUTC
12:53 AM,66.0,63.0,90,29.85,10.0,East,8.1,-,N/A,,Mostly Cloudy,90,2013-07-13 06:53:00
1:53 AM,64.9,62.1,90,29.85,10.0,WSW,3.5,-,0.00,,Clear,250,2013-07-13 07:53:00
2:53 AM,62.1,61.0,96,29.85,10.0,East,5.8,-,N/A,,Clear,90,2013-07-13 08:53:00
3:53 AM,64.0,61.0,90,29.86,10.0,ESE,6.9,-,N/A,,Clear,110,2013-07-13 09:53:00
4:53 AM,62.1,60.1,93,29.89,10.0,East,3.5,-,N/A,,Clear,90,2013-07-13 10:53:00
5:53 AM,61.0,60.1,97,29.91,10.0,East,6.9,-,N/A,,Clear,100,2013-07-13 11:53:00
6:53 AM,64.9,61.0,87,29.91,10.0,Calm,Calm,-,N/A,,Clear,0,2013-07-13 12:53:00
7:53 AM,68.0,62.1,81,29.91,10.0,SE,3.5,-,N/A,,Clear,130,2013-07-13 13:53:00
8:53 AM,73.0,62.1,68,29.91,10.0,Variable,3.5,-,N/A,,Clear,0,2013-07-13 14:53:00
9:53 AM,77.0,62.1,60,29.90,10.0,South,4.6,-,N/A,,Clear,190,2013-07-13 15:53:00
10:53 AM,84.0,61.0,46,29.88,10.0,WSW,6.9,-,N/A,,Clear,250,2013-07-13 16:53:00
11:53 AM,84.9,59.0,41,29.87,10.0,Variable,3.5,-,N/A,,Clear,0,2013-07-13 17:53:00
12:53 PM,91.0,52.0,26,29.86,10.0,West,9.2,16.1,N/A,,Clear,260,2013-07-13 18:53:00
1:53 PM,93.0,51.1,24,29.85,10.0,WNW,8.1,-,N/A,,Clear,300,2013-07-13 19:53:00
2:53 PM,93.0,48.9,22,29.83,10.0,NW,8.1,-,N/A,,Clear,320,2013-07-13 20:53:00
3:53 PM,91.9,48.0,22,29.83,10.0,North,4.6,-,N/A,,Clear,360,2013-07-13 21:53:00
4:53 PM,91.0,48.0,23,29.83,10.0,Calm,Calm,-,N/A,,Mostly Cloudy,0,2013-07-13 22:53:00
5:36 PM,86.0,53.6,33,30.01,10.0,West,9.2,-,N/A,Thunderstorm,Overcast,280,2013-07-13 23:36:00
5:51 PM,86.0,55.4,35,30.00,10.0,South,11.5,-,N/A,,Mostly Cloudy,190,2013-07-13 23:51:00
5:53 PM,87.1,55.9,35,29.85,10.0,South,8.1,18.4,N/A,,Mostly Cloudy,190,2013-07-13 23:53:00
6:53 PM,82.9,57.0,41,29.87,10.0,WSW,10.4,18.4,N/A,,Mostly Cloudy,240,2013-07-14 00:53:00
7:53 PM,77.0,60.1,56,29.91,10.0,WSW,13.8,-,N/A,,Mostly Cloudy,250,2013-07-14 01:53:00
8:53 PM,75.9,60.1,58,29.90,10.0,West,11.5,-,N/A,,Partly Cloudy,260,2013-07-14 02:53:00
9:53 PM,71.1,62.1,73,29.93,10.0,WSW,10.4,-,0.00,Rain,Light Rain,250,2013-07-14 03:53:00
10:53 PM,71.1,60.1,68,29.94,10.0,SW,12.7,21.9,0.00,,Partly Cloudy,220,2013-07-14 04:53:00
11:53 PM,72.0,59.0,64,29.91,10.0,West,5.8,-,N/A,,Clear,270,2013-07-14 05:53:00